Location: Grantsboro
(35.1404°N, 76.8424°W)
Time: 09:51:12
(UTC+00:00)

Cosmos 1932 - Pass Details

Date: 18 January 2020
Orbit: 921 x 1009 km, 65.0° (Epoch: 19 February)

Event Time Altitude Azimuth Distance (km) Brightness Sun altitude
Exits shadow 09:49:23 76° 213° (SSW) 1,034 4.4 -29.3°
Drops below altitude 10° 09:55:34 10° 158° (SSE) 2,750 7.2 -28.1°
Sets 09:58:07 0° 157° (SSE) 3,685 7.9 -27.6°
